Regional Weather Roundup
Issued by NWS

Home | Current Version | Previous Version | Graphics & Text | Print | Product List | Glossary Off
Versions: 1 2 3 4 5 6 7 8 9 10 11 12 13 14 15 16 17 18 19 20 21 22 23 24 25 26 27 28 29 30 31 32 33 34 35 36 37 38 39 40 41 42 43 44 45 46 47 48 49 50

000
ASUS43 KMPX 041610
RWRMN
WEATHER ROUNDUP FOR MINNESOTA
NATIONAL WEATHER SERVICE TWIN CITIES/CHANHASSEN MN
1100 AM CDT FRI SEP 04 2015


NOTE: "FAIR" INDICATES FEW OR NO CLOUDS BELOW 12,000 FEET WITH NO
SIGNIFICANT WEATHER AND/OR OBSTRUCTIONS TO VISIBILITY. N/A MEANS
CURRENT SKY AND/OR WEATHER CONDITIONS ARE NOT AVAILABLE.

MNZ060>063-068>070-041700-
   Twin Cities Metro

CITY           SKY/WX    TMP DP  RH WIND       PRES   REMARKS
TWIN CITIES    SUNNY     78  70  76 SE12      29.93F
ST PAUL        SUNNY     78  70  76 SE10      29.94F
CRYSTAL        SUNNY     81  70  69 SE14      29.91F
LAKEVILLE      SUNNY     79  72  78 SE9       29.93F
EDEN PRAIRIE   MOSUNNY   81  72  74 SE13      29.91F
SOUTH ST PAUL  SUNNY     78  69  72 SE9       29.94F
LAKE ELMO      FAIR      79  70  73 SE9       29.97S
$$
MNZ001>005-007-008-013>017-022>024-027-028-041700-
   Northwest Minnesota

CITY           SKY/WX    TMP DP  RH WIND       PRES   REMARKS
BEMIDJI        CLOUDY    71  66  85 SE17      29.88R
HALLOCK        CLOUDY    79  72  78 E6        29.81R
ROSEAU         PTSUNNY   72  66  83 E10       29.86R
WARROAD        CLOUDY    70  64  83 E9        29.88S
THIEF RVR FALL MOSUNNY   77  72  83 SE13      29.82S
CROOKSTON      MOSUNNY   81  72  74 SE10      29.79R
FOSSTON        SUNNY     79  66  65 SE12      29.83S
DETROIT LAKES  CLOUDY    75  70  83 SE14G21   29.85R
MOORHEAD       PTSUNNY   81  70  69 S16G25    29.80R
PARK RAPIDS    CLOUDY    75  67  76 SE15      29.88S
MAHNOMEN       FAIR      77  69  78 SE13G21   29.82S
$$
MNZ006-009>011-018-025>026-041700-
   North Central Minnesota

CITY           SKY/WX    TMP DP  RH WIND       PRES   REMARKS
BAUDETTE       SUNNY     75  66  73 SE14G21   29.88F
FLAG ISLAND    CLOUDY    70  64  83 E6        29.88S
INTL FALLS     SUNNY     76  66  71 SE12      29.94S
WASKISH        PTSUNNY   75  68  78 E13       29.89R
BIG FORK       CLOUDY    73  66  78 SE9       29.94S
LONGVILLE      PTSUNNY   75  68  78 SE8       29.91R
GRAND RAPIDS     N/A     72  64  78 SE10G17   29.94S
CRANE LAKE     MOSUNNY   73  63  68 SE8       29.99F
ORR            MOSUNNY   75  63  64 SE10      29.95S
COOK           MOSUNNY   75  64  69 SE8       29.99R
WALKER         CLOUDY    72  67  85 SE8       29.89S
$$
MNZ012-019>021-037-041700-
   Northeast Minnesota

CITY           SKY/WX    TMP DP  RH WIND       PRES   REMARKS
DULUTH         MOSUNNY   70  63  78 SE12      29.99F
ELY            SUNNY     75  61  60 SE13      30.02R
HIBBING        CLOUDY    74  65  73 SE14      29.97F
EVELETH        SUNNY     73  63  68 SE8       30.00S
DULUTH HARBOR  CLOUDY    63  59  88 E12       30.00F
TWO HARBORS    SUNNY     75  66  73 E8        30.00S
SILVER BAY     SUNNY     72  63  73 NE7       30.02S
GRAND MARAIS     N/A     63  55  75 E7        30.06R
G MARAIS ARPRT SUNNY     70  57  64 SE6       30.10R
$$
MNZ029>031-032-039>041-046>048-054>057-064-041700-
   West Central Minnesota

CITY           SKY/WX    TMP DP  RH WIND       PRES   REMARKS
FERGUS FALLS   PTSUNNY   81  70  69 S13       29.82R
WHEATON        CLOUDY    75  68  78 S7        29.84R
MORRIS         PTSUNNY   81  70  69 S14       29.84R
ALEXANDRIA     MOSUNNY   81  71  71 S15       29.88R
ELBOW LAKE     FAIR      79  71  75 S15       29.85R HAZE
WADENA         CLOUDY    73  70  88 SE12      29.87S
GLENWOOD       MOSUNNY   82  72  69 S14       29.89R
APPLETON       LGT RAIN  81  70  69 SW10G16   29.84R
BENSON         PTSUNNY   82  70  65 SW10      29.86R
ORTONVILLE     CLOUDY    75  70  83 SW5       29.86R
MADISON        CLOUDY    79  68  69 SW8       29.85S
WILLMAR        FAIR      82  72  69 S7        29.88R
$$
MNZ033>034-036-042>043-049>051-058-059-041700-
   Central Minnesota

CITY           SKY/WX    TMP DP  RH WIND       PRES   REMARKS
ST CLOUD       MOSUNNY   79  71  76 SE14      29.89F
SAUK CENTRE    FAIR      79  72  77 SE13      29.88S
PAYNESVILLE    SUNNY     81  70  71 E9        29.89S
AITKIN         SUNNY     79  70  73 SE9       29.92R
PINE RIVER     PTSUNNY   75  68  78 SE12      29.92F
BRAINERD       SUNNY     78  68  71 SE13      29.90F
STAPLES        CLOUDY    73  68  83 SE8       29.88S
LONG PRAIRIE   FAIR      77  70  78 SE13      29.88S
LITTLE FALLS   SUNNY     79  68  69 SE12      29.89F
LITCHFIELD     SUNNY     82  73  74 SE12      29.89F
BUFFALO        SUNNY     79  70  74 SE10G17   29.91F
MAPLE LAKE     SUNNY     81  74  79 SE8       29.91F
$$
MNZ037-044-045-052-053-041700-
   East Central Minnesota

CITY           SKY/WX    TMP DP  RH WIND       PRES   REMARKS
PRINCETON      SUNNY     81  70  69 E8        29.92F
MORA           PTSUNNY   75  66  73 SE8       29.96S
CAMBRIDGE      SUNNY     81  66  61 SE9       29.92S
RUSH CITY      SUNNY     78  69  73 SE8       29.95R
MOOSE LAKE     SUNNY     77  68  73 SE5       29.93F
HINCKLEY       FAIR      79  70  73 SE12      29.95S
CLOQUET        CLOUDY    68  61  77 SE9       29.98F
MCGREGOR       MOSUNNY   77  68  73 SE7G16    29.94F
$$
MNZ071>073-080-081-089-090-097-098-041700-
   Southwest Minnesota

CITY           SKY/WX    TMP DP  RH WIND       PRES   REMARKS
MONTEVIDEO     PTSUNNY   84  72  65 W9        29.88R
GRANITE FALLS  PTSUNNY   82  70  66 S10       29.88R
CANBY          CLOUDY    78  69  72 SW7       29.87R
MARSHALL       PTSUNNY   81  66  61 SW10      29.89R
REDWOOD FALLS  MOSUNNY   84  71  65 S8        29.86R
OLIVIA         MOSUNNY   79  68  69 S9        29.86S
PIPESTONE      MOSUNNY   81  68  65 SW8       29.90R
WINDOM         MOSUNNY   81  68  65 S8        29.90R
WORTHINGTON    PTSUNNY   79  68  69 S10       29.90R
JACKSON        MOSUNNY   81  70  69 S12       29.91R
TRACY          PTSUNNY   79  71  74 SW12      29.89R
SLAYTON        PTSUNNY   77  70  79 CALM      29.91R
$$
MNZ065>067-074>077-082>085-091>093-041700-
   South Central Minnesota

CITY           SKY/WX    TMP DP  RH WIND       PRES   REMARKS
MANKATO        SUNNY     81  72  74 SE13      29.91S
NEW ULM        SUNNY     82  72  69 S9        29.88S
ST JAMES       SUNNY     82  72  69 SE10      29.89S
FAIRMONT       SUNNY     81  66  61 SE15      29.90S
GLENCOE        SUNNY     83  74  72 SE9       29.90S HX  90
FARIBAULT      SUNNY     82  72  69 SE10      29.93F
OWATONNA       SUNNY     82  70  65 SE12      29.94F
WASECA         SUNNY     81  70  69 SE8       29.94S
ALBERT LEA     SUNNY     81  72  74 SE9       29.95F
$$
MNZ078>079-086>088-094>096-041700-
   Southeast Minnesota

CITY           SKY/WX    TMP DP  RH WIND       PRES   REMARKS
ROCHESTER      SUNNY     79  72  79 SE10      29.99F
RED WING       SUNNY     79  68  69 SE12      29.95S
STANTON        SUNNY     81  71  71 SE8       29.93F
DODGE CENTER   SUNNY     79  72  78 SE7       29.97F
WINONA         SUNNY     79  68  69 SE7       29.99S
AUSTIN         SUNNY     81  72  74 SE6       29.96F
PRESTON        SUNNY     78  69  74 SE8       30.01S
$$
ABBREVIATIONS USED IN REMARKS
   TC - TEMPERATURES IN CELSIUS
  WCI - WIND CHILL INDEX
   HX - HEAT INDEX
  VSB - VISIBILITY
$$



USA.gov is the U.S. government's official web portal to all federal, state and local government web resources and services.